Location: Central Coast
(33.3208°S, 151.2336°E)
Time: 18:08:15
(UTC+11:00)

N. Korean satellite - Visible Passes

Search period start: 21 February 2018 00:00
Search period end: 03 March 2018 00:00
Orbit: 459 x 514 km, 97.2° (Epoch: 20 February)

Date Brightness Start Highest point End Pass type
(mag) Time Alt. Az. Time Alt. Az. Time Alt. Az.
21 Feb 9.8 20:19:05 10° SSW 20:21:42 19° WSW 20:24:16 10° WNW visible
24 Feb 10.1 06:03:38 10° ENE 06:06:15 18° ESE 06:08:51 10° SSE visible
25 Feb 9.7 20:17:34 10° SSW 20:20:11 20° WSW 20:22:47 10° WNW visible
28 Feb 10.1 06:02:14 10° ENE 06:04:44 17° ESE 06:07:15 10° SSE visible
01 Mar 9.6 20:15:58 10° SSW 20:18:38 20° WSW 20:21:15 10° WNW visible
02 Mar 8.0 19:51:38 10° S 19:55:00 43° WSW 19:58:17 10° NNW visible
